FW4013 Weather Reports


time (UTC)temp
F
wind
direction
speed
knots
gust
knots
rain 1hr
in
rain 24hr
in
rain mn
in
humidity
%
barometer
mb
20260504232044 76 242 3.5 10.4 0.00 0.00 0.00 27 1008.7
20260504231604 76 248 3.5 10.4 0.00 0.00 0.00 27 1008.7
20260504231044 76 254 3.5 11.3 0.00 0.00 0.00 27 1008.7
20260504230604 76 261 5.2 11.3 0.00 0.00 0.00 27 1008.6
20260504230045 76 238 4.3 10.4 0.00 0.00 0.00 27 1009.0
20260504225604 76 257 5.2 10.4 0.00 0.00 0.00 27 1008.8
20260504225044 76 254 5.2 10.4 0.00 0.00 0.00 28 1008.8
20260504224544 76 258 4.3 9.6 0.00 0.00 0.00 29 1009.0
20260504224045 76 234 3.5 10.4 0.00 0.00 0.00 29 1009.0
20260504223544 75 254 4.3 10.4 0.00 0.00 0.00 29 1009.1
20260504223104 75 257 5.2 8.7 0.00 0.00 0.00 29 1009.1
20260504222544 75 252 3.5 9.6 0.00 0.00 0.00 29 1009.0
20260504222044 75 248 5.2 12.2 0.00 0.00 0.00 29 1009.1
20260504221544 75 260 4.3 13.9 0.00 0.00 0.00 30 1009.2
20260504221044 75 232 4.3 13.9 0.00 0.00 0.00 30 1009.1
20260504220544 75 247 4.3 7.8 0.00 0.00 0.00 30 1009.2
20260504220044 74 214 3.5 8.7 0.00 0.00 0.00 30 1009.1
20260504215544 74 210 3.5 8.7 0.00 0.00 0.00 30 1009.2
20260504215044 74 251 2.6 7.0 0.00 0.00 0.00 30 1009.3
20260504214544 74 245 4.3 9.6 0.00 0.00 0.00 30 1009.4
20260504214044 74 250 4.3 12.2 0.00 0.00 0.00 30 1009.4
20260504213544 74 235 5.2 12.2 0.00 0.00 0.00 30 1009.4
20260504213044 73 199 2.6 7.8 0.00 0.00 0.00 31 1009.6
20260504212604 73 245 2.6 7.0 0.00 0.00 0.00 31 1009.5
20260504212044 73 222 2.6 7.8 0.00 0.00 0.00 31 1009.4
20260504211544 73 236 1.7 10.4 0.00 0.00 0.00 30 1009.4
20260504211104 73 222 3.5 10.4 0.00 0.00 0.00 31 1009.6
20260504210544 73 269 3.5 10.4 0.00 0.00 0.00 31 1009.6
20260504210044 73 250 4.3 10.4 0.00 0.00 0.00 31 1009.6
20260504205544 73 252 4.3 7.8 0.00 0.00 0.00 31 1009.7
20260504205044 73 240 4.3 7.8 0.00 0.00 0.00 31 1009.8
20260504204544 72 251 3.5 9.6 0.00 0.00 0.00 31 1009.7
20260504204044 72 232 4.3 9.6 0.00 0.00 0.00 31 1009.6
20260504203544 73 257 3.5 9.6 0.00 0.00 0.00 31 1009.6
20260504203044 73 253 5.2 9.6 0.00 0.00 0.00 31 1009.9
20260504202544 73 236 4.3 7.8 0.00 0.00 0.00 31 1009.8
20260504202044 73 246 3.5 7.8 0.00 0.00 0.00 31 1009.8
20260504201544 73 246 3.5 7.0 0.00 0.00 0.00 31 1009.9
20260504201044 72 239 3.5 7.8 0.00 0.00 0.00 31 1009.9
20260504200544 72 236 4.3 7.8 0.00 0.00 0.00 31 1010.0
20260504200044 73 229 4.3 7.8 0.00 0.00 0.00 31 1009.9
20260504195544 73 236 4.3 7.0 0.00 0.00 0.00 31 1009.9
20260504195044 73 238 3.5 7.8 0.00 0.00 0.00 30 1009.9
20260504194544 72 229 3.5 7.8 0.00 0.00 0.00 31 1010.0
20260504194044 73 226 4.3 7.0 0.00 0.00 0.00 31 1009.9
20260504193604 73 217 3.5 7.0 0.00 0.00 0.00 31 1010.0
20260504193044 74 231 3.5 6.1 0.00 0.00 0.00 31 1009.9
20260504192544 74 229 2.6 7.0 0.00 0.00 0.00 31 1009.9
20260504192044 74 226 4.3 7.0 0.00 0.00 0.00 31 1010.0
20260504191544 75 196 2.6 5.2 0.00 0.00 0.00 31 1010.0
20260504191044 75 213 2.6 6.1 0.00 0.00 0.00 31 1010.1
20260504190544 76 184 1.7 6.1 0.00 0.00 0.00 31 1010.0
20260504190044 77 158 1.7 6.1 0.00 0.00 0.00 31 1010.0
20260504185544 77 229 3.5 6.1 0.00 0.00 0.00 31 1010.1
20260504185044 77 211 3.5 6.1 0.00 0.00 0.00 31 1010.1
20260504184604 76 225 3.5 5.2 0.00 0.00 0.00 32 1010.2
20260504184044 76 223 1.7 5.2 0.00 0.00 0.00 32 1010.1
20260504183544 76 207 2.6 4.3 0.00 0.00 0.00 32 1010.3
20260504183045 75 190 1.7 4.3 0.00 0.00 0.00 33 1010.3
20260504182544 75 136 1.7 4.3 0.00 0.00 0.00 33 1010.2
20260504182044 75 185 1.7 3.5 0.00 0.00 0.00 34 1010.2
20260504181544 74 188 1.7 3.5 0.00 0.00 0.00 34 1010.2
20260504181044 73 161 1.7 5.2 0.00 0.00 0.00 34 1010.2
20260504180544 73 216 1.7 5.2 0.00 0.00 0.00 34 1010.1
20260504180044 74 142 1.7 3.5 0.00 0.00 0.00 34 1010.4
20260504175624 74 160 1.7 3.5 0.00 0.00 0.00 35 1010.2
20260504175044 73 183 1.7 3.5 0.00 0.00 0.00 35 1010.2
20260504174544 72 183 2.6 3.5 0.00 0.00 0.00 35 1010.3
20260504174044 72 160 1.7 3.5 0.00 0.00 0.00 36 1010.3
20260504173544 71 142 1.7 5.2 0.00 0.00 0.00 35 1010.3
20260504173104 71 182 1.7 5.2 0.00 0.00 0.00 35 1010.5
20260504172544 71 185 2.6 6.1 0.00 0.00 0.00 35 1010.6
20260504172044 71 125 2.6 6.1 0.00 0.00 0.00 35 1010.6
20260504171544 70 103 3.5 6.1 0.00 0.00 0.00 34 1010.6
20260504171044 70 131 2.6 7.0 0.00 0.00 0.00 36 1010.8
20260504170544 69 115 2.6 7.0 0.00 0.00 0.00 36 1010.7
20260504170104 69 118 2.6 5.2 0.00 0.00 0.00 36 1010.8
20260504160105 65 144 1.7 3.5 0.00 0.00 0.00 41 1011.3
20260504151044 62 99 2.6 4.3 0.00 0.00 0.00 43 1011.6
20260504150544 62 67 0.9 4.3 0.00 0.00 0.00 43 1011.7
20260504141044 59 223 0.9 1.7 0.00 0.00 0.00 44 1011.7
20260504140544 59 318 0.9 4.3 0.00 0.00 0.00 45 1011.7
20260504130604 58 310 1.7 2.6 0.00 0.00 0.00 46 1011.3
20260504110544 58 55 1.7 3.5 0.00 0.00 0.00 44 1011.2
20260504100544 60 346 0.9 3.5 0.00 0.00 0.00 41 1011.4
20260504081544 62 310 0.9 1.7 0.00 0.00 0.00 38 1010.9
20260504081044 62 252 0.9 2.6 0.00 0.00 0.00 38 1010.9
20260504080544 63 318 0.9 2.6 0.00 0.00 0.00 36 1011.0
20260504050543 67 29 1.7 3.5 0.00 0.00 0.00 32 1011.0
20260504045543 67 26 0.9 3.5 0.00 0.00 0.00 33 1011.1
20260504045043 67 37 1.7 3.5 0.00 0.00 0.00 32 1011.0
20260504044543 68 27 0.9 6.1 0.00 0.00 0.00 32 1010.9
20260504044104 68 319 0.9 6.1 0.00 0.00 0.00 32 1010.9
20260504043544 68 35 1.7 6.1 0.00 0.00 0.00 31 1010.9
20260504043043 69 82 1.7 9.6 0.00 0.00 0.00 31 1010.8
20260504042543 69 68 2.6 9.6 0.00 0.00 0.00 31 1010.8
20260504042043 68 78 1.7 6.1 0.00 0.00 0.00 31 1010.7
20260504041544 69 69 2.6 5.2 0.00 0.00 0.00 32 1010.7
20260504041043 69 54 1.7 4.3 0.00 0.00 0.00 32 1010.7
20260504040543 69 64 1.7 6.1 0.00 0.00 0.00 32 1010.8
20260504040043 69 47 1.7 6.1 0.00 0.00 0.00 31 1010.7
20260504035543 69 70 2.6 8.7 0.00 0.00 0.00 31 1010.6
20260504035124 69 56 2.6 8.7 0.00 0.00 0.00 31 1010.7
20260504034043 69 58 1.7 3.5 0.00 0.00 0.00 31 1010.6
20260504033543 69 354 0.9 2.6 0.00 0.00 0.00 31 1010.7
20260504033043 70 37 0.9 2.6 0.00 0.00 0.00 31 1010.6
20260504032604 70 344 0.9 2.6 0.00 0.00 0.00 31 1010.4
20260504032043 70 325 0.9 2.6 0.00 0.00 0.00 31 1010.5
20260504031543 70 25 0.9 2.6 0.00 0.00 0.00 30 1010.4
20260504031043 70 266 0.9 2.6 0.00 0.00 0.00 30 1010.3
20260504030543 70 15 1.7 2.6 0.00 0.00 0.00 30 1010.3
20260504030043 71 354 0.9 1.7 0.00 0.00 0.00 30 1010.3
20260504025543 71 333 0.9 2.6 0.00 0.00 0.00 31 1010.3
20260504025043 71 348 0.9 2.6 0.00 0.00 0.00 31 1010.3
20260504024603 72 27 0.9 2.6 0.00 0.00 0.00 31 1010.2
20260504024044 72 344 1.7 2.6 0.00 0.00 0.00 30 1010.2
20260504023543 72 358 1.7 2.6 0.00 0.00 0.00 28 1010.3
20260504023043 73 325 0.9 2.6 0.00 0.00 0.00 27 1010.4
20260504022543 73 355 0.9 3.5 0.00 0.00 0.00 27 1010.3
20260504022043 73 300 1.7 3.5 0.00 0.00 0.00 27 1010.3
20260504021543 73 306 1.7 3.5 0.00 0.00 0.00 27 1010.3
20260504021043 74 299 0.9 2.6 0.00 0.00 0.00 27 1010.3
20260504020604 74 344 0.9 2.6 0.00 0.00 0.00 27 1010.3
20260504020044 74 305 1.7 4.3 0.00 0.00 0.00 25 1010.4
20260504015543 74 312 1.7 4.3 0.00 0.00 0.00 25 1010.5
20260504015043 74 281 0.9 3.5 0.00 0.00 0.00 24 1010.3
20260504014543 74 204 0.9 6.1 0.00 0.00 0.00 25 1010.4
20260504014103 75 303 0.9 6.1 0.00 0.00 0.00 25 1010.3
20260504013543 75 272 2.6 5.2 0.00 0.00 0.00 25 1010.4
20260504013043 75 270 2.6 5.2 0.00 0.00 0.00 25 1010.5
20260504012543 75 251 1.7 8.7 0.00 0.00 0.00 25 1010.6
20260504012043 75 238 3.5 8.7 0.00 0.00 0.00 25 1010.4
20260504011543 75 268 1.7 6.1 0.00 0.00 0.00 24 1010.5
20260504011103 75 269 2.6 7.0 0.00 0.00 0.00 25 1010.5
20260504010543 75 294 1.7 7.0 0.00 0.00 0.00 25 1010.5
20260504005543 75 304 2.6 5.2 0.00 0.00 0.00 25 1010.5
20260504005043 75 227 1.7 6.1 0.00 0.00 0.00 26 1010.8
20260504004543 75 124 1.7 7.8 0.00 0.00 0.00 26 1010.8
20260504004103 75 283 3.5 9.6 0.00 0.00 0.00 25 1010.9
20260504003543 75 244 3.5 9.6 0.00 0.00 0.00 26 1010.7
20260504003043 75 261 4.3 7.8 0.00 0.00 0.00 26 1010.8
20260504002623 75 275 3.5 7.8 0.00 0.00 0.00 26 1011.0
20260504002043 75 258 1.7 10.4 0.00 0.00 0.00 26 1010.9
20260504001543 75 227 3.5 10.4 0.00 0.00 0.00 26 1011.0
20260504001043 75 242 3.5 7.8 0.00 0.00 0.00 26 1011.0
20260504000543 75 241 3.5 7.8 0.00 0.00 0.00 26 1011.2
20260504000043 75 262 1.7 5.2 0.00 0.00 0.00 27 1011.2
20260503235543 75 207 2.6 7.0 0.00 0.00 0.00 27 1011.2
20260503235043 75 224 1.7 7.0 0.00 0.00 0.00 27 1011.2
20260503234043 74 268 3.5 7.0 0.00 0.00 0.00 28 1011.4
20260503233603 74 263 3.5 7.0 0.00 0.00 0.00 28 1011.5
20260503233043 74 259 4.3 8.7 0.00 0.00 0.00 28 1011.5
20260503232543 75 265 5.2 8.7 0.00 0.00 0.00 27 1011.6